Stations météo

réclame
Mon MeteoGroup
Leeuwarden, Pays-Bas (6270): Température de l'air & dewpoint: 04.12.2018 23:00:00 - 10.12.2018 23:00:00 (CET)Leeuwarden, Pays-Bas (6270): Température de l'air 5cm: 04.12.2018 23:00:00 - 10.12.2018 23:00:00 (CET)Leeuwarden, Pays-Bas (6270): Vitesse du vent & gusts: 04.12.2018 23:00:00 - 10.12.2018 23:00:00 (CET)Leeuwarden, Pays-Bas (6270): Direction du vent: 04.12.2018 23:00:00 - 10.12.2018 23:00:00 (CET)Leeuwarden, Pays-Bas (6270): reduced air pressure: 04.12.2018 23:00:00 - 10.12.2018 23:00:00 (CET)Leeuwarden, Pays-Bas (6270): visibility: 04.12.2018 23:00:00 - 10.12.2018 23:00:00 (CET)Leeuwarden, Pays-Bas (6270): Quantités de précipitations: 04.12.2018 23:00:00 - 10.12.2018 23:00:00 (CET)
Date & Time tt [°C] td [°C] tt 5cm [°C] ff [km/h] ff [knt] fx [km/h] fx [knt] dd ppp [hPa] vv [km] rr [mm]
10.12.2018 23:00:00 6,0 2,0 4,7 26 14 - - NNW 1021,2 10 -
10.12.2018 22:00:00 6,2 2,3 4,6 24 13 47 25 NW 1021,1 10 0,0
10.12.2018 21:00:00 6,2 3,4 5,2 28 15 47 25 NW 1021,1 10 0,1
10.12.2018 20:00:00 6,0 3,3 5,3 22 12 36 19 NNW 1020,6 10 0,2
10.12.2018 19:00:00 5,7 3,1 5,0 28 15 47 25 NW 1020,4 10 0,0
10.12.2018 18:00:00 5,9 3,1 5,1 28 15 54 29 NW 1020,1 10 0,0
10.12.2018 17:00:00 5,3 2,8 4,8 26 14 58 31 NW 1019,6 10 0,1
10.12.2018 16:00:00 6,1 3,2 5,6 28 15 61 33 NW 1019,5 6 0,1
10.12.2018 15:00:00 6,4 1,7 5,9 34 18 50 27 NW 1019,1 10 0,0
10.12.2018 14:00:00 6,2 1,6 4,9 22 12 65 35 NW 1018,6 10 0,0
10.12.2018 13:00:00 5,7 1,5 5,3 26 14 54 29 WNW 1018,4 10 0,0
10.12.2018 12:00:00 5,6 2,5 4,3 26 14 54 29 WNW 1018,4 10 0,4
10.12.2018 11:00:00 6,5 1,7 5,5 26 14 50 27 WNW 1018,1 10 0,0
10.12.2018 10:00:00 5,7 1,8 4,9 24 13 54 29 WNW 1018,0 10 0,0
10.12.2018 09:00:00 5,5 2,6 4,9 35 19 50 27 NW 1017,5 10 0,0
10.12.2018 08:00:00 4,1 2,2 3,4 29 16 54 29 NW 1016,9 10 0,2
10.12.2018 07:00:00 4,0 2,6 3,7 46 25 61 33 NNW 1016,6 3,7 0,2
10.12.2018 06:00:00 4,8 1,5 3,4 29 16 58 31 NW 1015,9 10 0,0
10.12.2018 05:00:00 5,1 1,8 4,3 31 17 54 29 WNW 1015,3 10 0,0
10.12.2018 04:00:00 5,9 2,0 4,8 29 16 58 31 NW 1014,9 10 0,0
10.12.2018 03:00:00 5,8 2,2 4,9 24 13 50 27 NW 1014,5 10 0,0
10.12.2018 02:00:00 5,3 1,8 4,2 26 14 61 33 WNW 1013,6 10 0,0
10.12.2018 01:00:00 5,8 2,0 4,9 24 13 50 27 WNW 1012,9 10 0,1
10.12.2018 00:00:00 5,5 2,0 4,4 29 16 72 39 NW 1012,3 10 0,2
09.12.2018 23:00:00 4,9 2,1 4,0 29 16 50 27 NNW 1011,4 10 0,0
09.12.2018 22:00:00 6,4 2,3 5,0 28 15 54 29 NW 1010,5 10 0,2
09.12.2018 21:00:00 6,1 2,7 5,1 29 16 58 31 NNW 1009,5 10 0,0
09.12.2018 20:00:00 7,2 2,2 6,0 29 16 61 33 NW 1008,5 10 0,0
09.12.2018 19:00:00 6,7 2,2 6,0 29 16 54 29 NW 1006,9 10 0,0
09.12.2018 18:00:00 7,1 2,8 6,2 26 14 54 29 NW 1005,3 10 0,0
09.12.2018 17:00:00 7,2 3,5 5,8 28 15 61 33 NW 1003,6 10 0,1
09.12.2018 16:00:00 7,4 3,9 6,5 34 18 54 29 NW 1002,4 10 0,0
09.12.2018 15:00:00 8,3 5,3 8,0 26 14 47 25 NW 1000,3 10 0,0
09.12.2018 14:00:00 8,7 6,1 8,0 26 14 43 23 NW 998,9 10 0,1
09.12.2018 13:00:00 8,7 6,3 8,1 22 12 47 25 WNW 997,6 10 0,4
09.12.2018 12:00:00 9,3 6,2 8,8 28 15 50 27 WNW 996,5 10 0,1
09.12.2018 11:00:00 8,6 5,8 7,9 26 14 47 25 WNW 995,4 10 0,0
09.12.2018 10:00:00 8,2 5,7 7,4 26 14 47 25 WNW 994,2 10 0,0
09.12.2018 09:00:00 8,0 4,7 6,7 22 12 36 19 WNW 993,0 10 0,0
09.12.2018 08:00:00 7,9 6,0 7,3 28 15 43 23 WNW 992,1 10 0,1
09.12.2018 07:00:00 6,7 5,7 6,0 22 12 36 19 W 990,2 10 0,8
09.12.2018 06:00:00 7,1 5,8 6,7 22 12 43 23 W 989,0 10 2,7
09.12.2018 05:00:00 7,3 5,9 6,9 28 15 47 25 W 988,5 10 0,6
09.12.2018 04:00:00 7,6 6,3 7,1 29 16 54 29 W 988,6 10 2,0
09.12.2018 03:00:00 7,5 6,7 7,3 28 15 61 33 W 987,8 6 3,2
09.12.2018 02:00:00 8,3 6,5 7,1 44 24 68 37 W 986,8 6 1,2
09.12.2018 01:00:00 8,9 6,8 8,4 35 19 58 31 W 987,8 10 0,0
09.12.2018 00:00:00 9,0 6,9 8,4 37 20 58 31 W 987,0 10 0,4
08.12.2018 23:00:00 8,4 7,2 7,3 21 11 32 18 WSW 987,3 10 3,3
08.12.2018 22:00:00 6,6 6,3 6,6 9 5 22 12 WNW 987,9 2,3 1,8
08.12.2018 21:00:00 6,7 6,7 6,7 5 3 18 10 NNW 988,6 6 5,3
08.12.2018 20:00:00 7,2 6,4 6,9 18 10 47 25 W 989,8 6 5,0
08.12.2018 19:00:00 8,3 6,1 7,8 21 11 40 21 SW 992,7 10 0,0
08.12.2018 18:00:00 8,6 5,6 7,9 31 17 54 29 WSW 994,3 10 0,0
08.12.2018 17:00:00 8,8 5,5 8,3 37 20 58 31 WSW 995,5 10 0,0
08.12.2018 16:00:00 9,4 5,4 8,8 41 22 68 37 WSW 995,7 10 0,0
08.12.2018 15:00:00 9,5 5,4 9,0 48 26 65 35 W 995,6 10 0,0
08.12.2018 14:00:00 9,5 5,7 8,8 46 25 61 33 W 995,4 10 0,1
08.12.2018 13:00:00 9,3 6,2 8,6 48 26 68 37 W 995,4 10 0,0
08.12.2018 12:00:00 9,2 6,3 8,7 41 22 65 35 W 995,4 10 0,0
08.12.2018 11:00:00 9,4 6,4 8,6 42 23 61 33 W 995,1 10 0,1
08.12.2018 10:00:00 9,0 6,5 8,5 41 22 61 33 WSW 994,9 10 0,4
08.12.2018 09:00:00 8,1 6,8 7,8 44 24 61 33 WSW 994,8 6 0,3
08.12.2018 08:00:00 8,5 5,9 8,0 42 23 58 31 WSW 995,1 10 0,1
08.12.2018 07:00:00 8,0 6,2 7,6 37 20 54 29 WSW 995,5 9 0,3
08.12.2018 06:00:00 7,8 6,1 7,4 35 19 54 29 SW 995,9 10 0,0
08.12.2018 05:00:00 8,2 5,2 7,9 35 19 50 27 WSW 996,4 10 0,0
08.12.2018 04:00:00 7,8 4,7 7,1 31 17 50 27 SW 997,2 10 0,0
08.12.2018 03:00:00 7,4 4,4 6,9 28 15 47 25 SW 997,8 10 0,0
08.12.2018 02:00:00 6,9 3,5 6,4 31 17 43 23 WSW 998,1 10 0,0
08.12.2018 01:00:00 6,9 3,2 6,2 35 19 50 27 WSW 998,5 10 0,0
08.12.2018 00:00:00 7,1 3,5 6,5 29 16 43 23 WSW 998,5 10 0,0
07.12.2018 23:00:00 7,1 3,4 6,4 26 14 50 27 WSW 998,2 10 0,0
07.12.2018 22:00:00 7,7 2,9 6,3 29 16 50 27 W 997,9 10 0,0
07.12.2018 21:00:00 7,6 3,9 6,9 29 16 58 31 W 997,1 10 0,0
07.12.2018 20:00:00 7,5 5,2 6,6 21 11 29 16 WSW 996,3 10 0,0
07.12.2018 19:00:00 6,8 5,0 6,5 18 10 36 19 WSW 995,7 10 0,0
07.12.2018 18:00:00 6,9 5,0 6,5 24 13 54 29 WNW 994,2 10 1,2
07.12.2018 17:00:00 8,1 7,4 7,9 21 11 50 27 W 993,4 10 3,0
07.12.2018 16:00:00 10,4 9,9 10,2 31 17 58 31 SSW 993,5 9 2,4
07.12.2018 15:00:00 10,5 10,2 10,4 31 17 50 27 SSW 994,3 3,0 0,6
07.12.2018 14:00:00 10,6 10,3 10,5 29 16 47 25 SSW 996,6 2,5 0,6
07.12.2018 13:00:00 10,7 10,4 10,7 29 16 50 27 SSW 997,6 3,3 0,2
07.12.2018 12:00:00 11,1 10,5 11,0 37 20 61 33 SSW 999,2 5 0,0
07.12.2018 11:00:00 11,6 10,6 11,3 39 21 58 31 SW 1000,7 10 0,0
07.12.2018 10:00:00 11,2 10,9 11,0 35 19 54 29 SW 1001,3 3,8 1,5
07.12.2018 09:00:00 10,8 10,6 10,7 26 14 47 25 SSW 1002,6 3,9 1,2
07.12.2018 08:00:00 11,1 10,9 10,9 26 14 43 23 SSW 1003,6 4,1 1,4
07.12.2018 07:00:00 10,8 10,7 10,7 26 14 40 21 SW 1004,6 3,2 0,2
07.12.2018 06:00:00 10,9 10,9 10,8 26 14 40 21 SW 1005,6 2,7 0,1
07.12.2018 05:00:00 11,1 11,1 11,0 22 12 40 21 SW 1006,5 2,3 0,6
07.12.2018 04:00:00 11,0 10,9 10,9 21 11 36 19 SW 1007,5 2,5 0,5
07.12.2018 03:00:00 11,1 11,0 10,9 26 14 43 23 WSW 1008,2 2,5 0,5
07.12.2018 02:00:00 11,0 10,9 10,9 28 15 43 23 WSW 1008,6 2,6 0,5
07.12.2018 01:00:00 11,0 10,9 10,9 29 16 43 23 WSW 1009,3 2,8 0,4
07.12.2018 00:00:00 11,0 10,6 10,9 34 18 47 25 WSW 1009,7 4,1 0,4
06.12.2018 23:00:00 10,9 10,3 10,7 29 16 50 27 WSW 1010,0 4,2 0,5
06.12.2018 22:00:00 10,9 10,3 10,6 28 15 47 25 SW 1010,1 10 0,0
06.12.2018 21:00:00 10,8 10,6 10,7 34 18 43 23 WSW 1010,4 2,5 0,1
06.12.2018 20:00:00 10,7 10,1 10,5 24 13 40 21 SW 1010,7 10 0,0
06.12.2018 19:00:00 10,7 10,0 10,3 26 14 36 19 SW 1011,0 10 0,0
06.12.2018 18:00:00 10,2 9,7 9,9 22 12 40 21 SW 1011,4 9 0,0
06.12.2018 17:00:00 10,2 9,5 9,9 22 12 32 18 SW 1011,8 10 0,0
06.12.2018 16:00:00 10,2 9,5 9,9 22 12 40 21 SW 1011,6 10 0,0
06.12.2018 15:00:00 10,7 10,1 10,6 21 11 32 18 SW 1012,0 10 0,0
06.12.2018 14:00:00 10,8 10,4 10,6 18 10 29 16 SW 1012,1 10 0,0
06.12.2018 13:00:00 10,7 10,2 10,5 16 9 32 18 SW 1012,6 3,7 0,0
06.12.2018 12:00:00 10,7 10,6 10,6 21 11 32 18 WSW 1012,5 3,3 0,1
06.12.2018 11:00:00 10,3 10,3 10,2 22 12 29 16 WSW 1012,7 1,3 0,1
06.12.2018 10:00:00 10,2 10,2 10,0 13 7 22 12 SSW 1011,7 0,4 0,0
06.12.2018 09:00:00 9,7 9,7 9,6 9 5 14 8 SSW 1011,8 0,8 0,0
06.12.2018 08:00:00 9,5 9,5 9,0 11 6 18 10 SW 1011,5 0,8 0,0
06.12.2018 07:00:00 8,7 8,7 8,6 13 7 25 14 SSW 1010,8 2,4 0,0
06.12.2018 06:00:00 8,7 8,6 8,5 16 9 25 14 SSW 1010,3 2,9 0,1
06.12.2018 05:00:00 8,4 8,4 8,1 15 8 22 12 SSW 1010,5 2,0 0,4
06.12.2018 04:00:00 7,9 7,9 7,7 16 9 25 14 S 1010,5 1,9 0,3
06.12.2018 03:00:00 7,6 7,5 7,4 16 9 25 14 S 1010,7 2,4 0,1
06.12.2018 02:00:00 7,3 7,1 7,1 16 9 25 14 S 1010,6 2,7 0,1
06.12.2018 01:00:00 7,0 6,9 6,9 16 9 25 14 S 1011,2 2,5 0,2
06.12.2018 00:00:00 7,0 6,6 6,9 21 11 32 18 S 1011,6 5 0,0
05.12.2018 23:00:00 6,9 6,4 6,7 21 11 32 18 S 1012,1 7 0,0
05.12.2018 22:00:00 6,7 6,4 6,5 18 10 32 18 SSE 1012,5 5 0,0
05.12.2018 21:00:00 6,5 5,9 6,2 18 10 32 18 SSE 1012,9 7 0,0
05.12.2018 20:00:00 5,8 5,6 5,6 18 10 32 18 SSE 1013,7 5 1,4
05.12.2018 19:00:00 5,4 5,0 5,2 24 13 40 21 SSE 1014,4 3,0 0,4
05.12.2018 18:00:00 5,1 4,3 4,9 24 13 43 23 SE 1015,1 4,7 0,8
05.12.2018 17:00:00 5,0 3,7 4,7 26 14 36 19 SE 1016,2 10 0,5
05.12.2018 16:00:00 4,8 3,7 4,6 21 11 36 19 SE 1017,5 10 0,2
05.12.2018 15:00:00 4,8 3,4 4,6 18 10 29 16 SE 1018,7 10 0,0
05.12.2018 14:00:00 4,7 3,1 4,6 18 10 29 16 SE 1019,9 10 0,0
05.12.2018 13:00:00 4,1 2,7 4,1 15 8 25 14 SE 1020,8 10 0,0
05.12.2018 12:00:00 3,4 2,2 3,3 15 8 25 14 SE 1021,6 10 -
05.12.2018 11:00:00 3,3 2,0 3,4 13 7 22 12 SSE 1022,7 8 0,0
05.12.2018 10:00:00 2,7 1,7 2,0 13 7 22 12 SSE 1023,2 7 0,0
05.12.2018 09:00:00 2,3 1,6 1,4 13 7 22 12 SSE 1023,7 4,9 0,0
05.12.2018 08:00:00 2,0 1,3 1,0 13 7 22 12 S 1023,8 5 0,0
05.12.2018 07:00:00 2,0 1,2 0,6 11 6 18 10 SSE 1024,1 4,8 0,0
05.12.2018 06:00:00 1,8 0,9 0,7 9 5 14 8 SSE 1024,1 4,6 0,0
05.12.2018 05:00:00 2,0 1,1 0,7 9 5 14 8 S 1024,1 9 0,0
05.12.2018 04:00:00 2,2 1,1 0,7 9 5 14 8 S 1024,3 6 0,0
05.12.2018 03:00:00 2,5 1,3 0,0 8 4 11 6 S 1024,8 7 0,0
05.12.2018 02:00:00 2,4 1,8 0,2 9 5 14 8 S 1025,0 10 0,0
05.12.2018 01:00:00 2,7 2,4 0,1 11 6 14 8 S 1024,9 10 0,0
05.12.2018 00:00:00 2,5 2,1 1,0 11 6 14 8 S 1025,1 10 0,0
04.12.2018 23:00:00 2,4 1,7 0,3 9 5 14 8 S 1025,0 10 0,0

tt = Température de l'air
td = dewpoint
tt 5cm = Température de l'air 5cm
ff = Vitesse du vent
fx = gusts
dd = Direction du vent
ppp = reduced air pressure
vv = visibility
rr = Quantités de précipitations

stations d'obs. à proximité